Location: Auckland
(36.8670°S, 174.7670°E)
Time: 13:13:49
(UTC+13:00)

Meteor 2-10 Rocket - Pass Details

Date: 24 January 2019
Orbit: 733 x 885 km, 81.2° (Epoch: 15 February)

Event Time Altitude Azimuth Distance (km) Brightness Sun altitude
Rises 21:32:04 0° 343° (NNW) 3,165 6.5 -10.2°
Reaches altitude 10° 21:34:23 10° 338° (NNW) 2,261 5.8 -10.6°
Maximum altitude 21:39:23 59° 259° (W) 890 4.2 -11.4°
Drops below altitude 10° 21:44:38 10° 179° (S) 2,368 6.5 -12.3°
Sets 21:47:07 0° 175° (S) 3,328 7.3 -12.7°
